When you browse on this site, cookies collect data to enhance your experience and personalize the content and advertising you see.
Visit our Privacy Policy to learn more. By continuing to use the site, you agree to this use of cookies and data.
  • In Latvia
  • List of Countries
  • For 7 days
  • Water Temperature
  • Weather Map
  • Weather Widgets
  • user-avatar
    Login

    Hourly Weather Aizpute

    Today, 15 September, Sunday

    Time Temperature Precipitation Wind Pressure Humidity
    00:00 +11°C° 0 mm 4 mps 758 mmHg 82%
    01:00 +12°C° 0 mm 4 mps 758 mmHg 83%
    02:00 +12°C° 0 mm 5 mps 757 mmHg 83%
    03:00 +12°C° 0 mm 5 mps 756 mmHg 83%
    04:00 +11°C° 0 mm 6 mps 755 mmHg 83%
    05:00 +11°C° 0.7 mm 7 mps 754 mmHg 85%
    06:00 +11°C° 0.7 mm 7 mps 753 mmHg 87%
    07:00 +11°C° 0.7 mm 8 mps 752 mmHg 89%
    08:00 +12°C° 0.4 mm 9 mps 751 mmHg 86%
    09:00 +12°C° 0.4 mm 10 mps 750 mmHg 83%
    10:00 +13°C° 0.4 mm 11 mps 749 mmHg 80%
    11:00 +13°C° 2.3 mm 11 mps 748 mmHg 84%
    12:00 +13°C° 2.3 mm 10 mps 748 mmHg 87%
    13:00 +12°C° 2.3 mm 10 mps 747 mmHg 91%
    14:00 +13°C° 0.5 mm 9 mps 747 mmHg 89%
    15:00 +13°C° 0.5 mm 9 mps 746 mmHg 87%
    16:00 +13°C° 0.5 mm 8 mps 745 mmHg 85%
    17:00 +13°C° 0.1 mm 8 mps 745 mmHg 82%
    18:00 +12°C° 0.1 mm 7 mps 745 mmHg 79%
    19:00 +11°C° 0.1 mm 7 mps 745 mmHg 77%
    20:00 +11°C° 0.1 mm 7 mps 745 mmHg 77%
    21:00 +11°C° 0.1 mm 7 mps 745 mmHg 77%
    22:00 +10°C° 0.1 mm 7 mps 745 mmHg 77%
    23:00 +10°C° 0.2 mm 7 mps 745 mmHg 78%

    Tomorrow, 16 September, Monday

    Time Temperature Precipitation Wind Pressure Humidity
    00:00 +10°C° 0.2 mm 7 mps 745 mmHg 79%
    01:00 +10°C° 0.2 mm 7 mps 744 mmHg 79%
    02:00 +10°C° 0.1 mm 7 mps 744 mmHg 78%
    03:00 +10°C° 0.1 mm 7 mps 744 mmHg 77%
    04:00 +10°C° 0.1 mm 7 mps 744 mmHg 77%
    05:00 +11°C° 0 mm 7 mps 744 mmHg 74%
    06:00 +11°C° 0 mm 7 mps 744 mmHg 72%
    07:00 +11°C° 0 mm 7 mps 744 mmHg 70%
    08:00 +11°C° 0 mm 8 mps 745 mmHg 66%
    09:00 +12°C° 0 mm 8 mps 745 mmHg 63%
    10:00 +12°C° 0 mm 8 mps 746 mmHg 59%
    11:00 +13°C° 0 mm 8 mps 746 mmHg 58%
    12:00 +13°C° 0 mm 8 mps 746 mmHg 57%
    13:00 +13°C° 0 mm 8 mps 746 mmHg 56%
    14:00 +14°C° 0 mm 7 mps 746 mmHg 58%
    15:00 +12°C° 0 mm 7 mps 746 mmHg 59%
    16:00 +13°C° 0 mm 6 mps 746 mmHg 61%
    17:00 +11°C° 0.1 mm 6 mps 746 mmHg 65%
    18:00 +10°C° 0.1 mm 5 mps 746 mmHg 69%
    19:00 +10°C° 0.1 mm 4 mps 745 mmHg 72%
    20:00 +8°C° 0.2 mm 4 mps 745 mmHg 75%
    21:00 +8°C° 0.2 mm 4 mps 745 mmHg 77%
    22:00 +8°C° 0.2 mm 4 mps 745 mmHg 80%
    23:00 +7°C° 0.2 mm 4 mps 745 mmHg 82%

    Day after tomorrow, 17 September, Tuesday

    Time Temperature Precipitation Wind Pressure Humidity
    00:00 +8°C° 0.2 mm 3 mps 745 mmHg 84%
    01:00 +7°C° 0.2 mm 3 mps 745 mmHg 86%
    02:00 +7°C° 0.3 mm 3 mps 745 mmHg 87%
    03:00 +7°C° 0.3 mm 3 mps 744 mmHg 88%
    04:00 +7°C° 0.3 mm 3 mps 744 mmHg 88%
    05:00 +8°C° 0.1 mm 3 mps 744 mmHg 86%
    06:00 +8°C° 0.1 mm 3 mps 744 mmHg 84%
    07:00 +9°C° 0.1 mm 3 mps 744 mmHg 81%
    08:00 +10°C° 0.5 mm 4 mps 743 mmHg 79%
    09:00 +10°C° 0.5 mm 5 mps 743 mmHg 77%
    10:00 +12°C° 0.5 mm 5 mps 743 mmHg 75%
    11:00 +12°C° 0.6 mm 5 mps 743 mmHg 74%
    12:00 +10°C° 0.6 mm 5 mps 742 mmHg 73%
    13:00 +10°C° 0.6 mm 5 mps 742 mmHg 71%
    14:00 +10°C° 0.5 mm 5 mps 742 mmHg 74%
    15:00 +10°C° 0.5 mm 4 mps 741 mmHg 76%
    16:00 +10°C° 0.5 mm 4 mps 741 mmHg 78%
    17:00 +9°C° 0.6 mm 3 mps 741 mmHg 82%
    18:00 +8°C° 0.6 mm 3 mps 741 mmHg 86%
    19:00 +7°C° 0.6 mm 2 mps 741 mmHg 90%
    20:00 +7°C° 0.1 mm 2 mps 741 mmHg 90%
    21:00 +7°C° 0.1 mm 2 mps 741 mmHg 90%
    22:00 +7°C° 0.1 mm 2 mps 741 mmHg 90%
    23:00 +7°C° 0.1 mm 2 mps 742 mmHg 90%

    18 September, Wednesday

    Time Temperature Precipitation Wind Pressure Humidity
    00:00 +7°C° 0.1 mm 2 mps 742 mmHg 91%
    01:00 +7°C° 0.1 mm 2 mps 742 mmHg 91%
    02:00 +7°C° 0.1 mm 2 mps 743 mmHg 91%
    03:00 +7°C° 0.1 mm 2 mps 743 mmHg 90%
    04:00 +7°C° 0.1 mm 2 mps 744 mmHg 89%
    05:00 +8°C° 0.3 mm 3 mps 744 mmHg 89%
    06:00 +8°C° 0.3 mm 3 mps 745 mmHg 89%
    07:00 +8°C° 0.3 mm 4 mps 746 mmHg 89%
    08:00 +10°C° 0.3 mm 4 mps 746 mmHg 86%
    09:00 +10°C° 0.3 mm 5 mps 747 mmHg 82%
    10:00 +10°C° 0.3 mm 5 mps 748 mmHg 79%
    11:00 +10°C° 0.4 mm 5 mps 749 mmHg 78%
    12:00 +10°C° 0.4 mm 6 mps 749 mmHg 76%
    13:00 +11°C° 0.4 mm 6 mps 750 mmHg 75%
    14:00 +10°C° 0.1 mm 5 mps 750 mmHg 73%
    15:00 +10°C° 0.1 mm 5 mps 751 mmHg 71%
    16:00 +11°C° 0.1 mm 4 mps 751 mmHg 69%
    17:00 +10°C° 0.1 mm 4 mps 752 mmHg 75%
    18:00 +8°C° 0.1 mm 3 mps 752 mmHg 82%
    19:00 +7°C° 0.1 mm 2 mps 753 mmHg 88%
    20:00 +7°C° 0.2 mm 2 mps 753 mmHg 89%
    21:00 +6°C° 0.2 mm 2 mps 753 mmHg 89%
    22:00 +6°C° 0.2 mm 2 mps 753 mmHg 90%
    23:00 +6°C° 0.3 mm 2 mps 754 mmHg 90%

    19 September, Thursday

    Time Temperature Precipitation Wind Pressure Humidity
    00:00 +7°C° 0.3 mm 2 mps 754 mmHg 90%
    01:00 +7°C° 0.3 mm 2 mps 754 mmHg 90%
    02:00 +7°C° 0.2 mm 2 mps 754 mmHg 90%
    03:00 +5°C° 0.2 mm 3 mps 754 mmHg 89%
    04:00 +5°C° 0.2 mm 3 mps 754 mmHg 89%
    05:00 +7°C° 0.2 mm 3 mps 754 mmHg 87%
    06:00 +6°C° 0.2 mm 4 mps 754 mmHg 85%
    07:00 +7°C° 0.2 mm 4 mps 754 mmHg 83%
    08:00 +7°C° 0.3 mm 5 mps 754 mmHg 80%
    09:00 +8°C° 0.3 mm 5 mps 755 mmHg 77%
    10:00 +9°C° 0.3 mm 6 mps 755 mmHg 74%
    11:00 +9°C° 0.7 mm 5 mps 755 mmHg 75%
    12:00 +9°C° 0.7 mm 5 mps 755 mmHg 76%
    13:00 +10°C° 0.7 mm 4 mps 755 mmHg 77%
    14:00 +8°C° 0.4 mm 5 mps 756 mmHg 80%
    15:00 +7°C° 0.4 mm 5 mps 756 mmHg 84%
    16:00 +5°C° 0.4 mm 6 mps 756 mmHg 87%
    17:00 +5°C° 0.1 mm 5 mps 757 mmHg 89%
    18:00 +4°C° 0.1 mm 4 mps 757 mmHg 90%
    19:00 +4°C° 0.1 mm 3 mps 758 mmHg 92%
    20:00 +3°C° 0.1 mm 3 mps 758 mmHg 91%
    21:00 +3°C° 0.1 mm 3 mps 759 mmHg 91%
    22:00 +4°C° 0.1 mm 2 mps 759 mmHg 90%
    23:00 +3°C° 0.1 mm 3 mps 759 mmHg 90%

    20 September, Friday

    Time Temperature Precipitation Wind Pressure Humidity
    00:00 +3°C° 0.1 mm 3 mps 760 mmHg 89%
    01:00 +3°C° 0.1 mm 3 mps 760 mmHg 89%
    02:00 +3°C° 0.1 mm 3 mps 760 mmHg 89%
    03:00 +3°C° 0.1 mm 3 mps 760 mmHg 89%
    04:00 +4°C° 0.1 mm 2 mps 760 mmHg 88%
    05:00 +5°C° 0.1 mm 2 mps 760 mmHg 86%
    06:00 +6°C° 0.1 mm 2 mps 760 mmHg 85%
    07:00 +8°C° 0.1 mm 1 mps 760 mmHg 83%
    08:00 +8°C° 0.2 mm 2 mps 760 mmHg 77%
    09:00 +9°C° 0.2 mm 2 mps 761 mmHg 72%
    10:00 +10°C° 0.2 mm 2 mps 761 mmHg 66%
    11:00 +11°C° 0.1 mm 3 mps 761 mmHg 62%
    12:00 +11°C° 0.1 mm 4 mps 761 mmHg 58%
    13:00 +12°C° 0.1 mm 4 mps 761 mmHg 53%
    14:00 +11°C° 0 mm 4 mps 760 mmHg 56%
    15:00 +11°C° 0 mm 3 mps 760 mmHg 59%
    16:00 +10°C° 0 mm 3 mps 759 mmHg 62%
    17:00 +10°C° 0 mm 3 mps 759 mmHg 67%
    18:00 +8°C° 0 mm 4 mps 759 mmHg 72%
    19:00 +7°C° 0 mm 4 mps 758 mmHg 76%
    20:00 +8°C° 0 mm 4 mps 758 mmHg 78%
    21:00 +10°C° 0 mm 4 mps 757 mmHg 80%
    22:00 +11°C° 0 mm 4 mps 756 mmHg 81%
    23:00 +11°C° 0.2 mm 4 mps 756 mmHg 85%
    Show more